Location: Krakow
(50.0830°N, 19.9170°E)
Time: 10:31:56
(UTC+01:00)

Transit 2A - Pass Details

Date: 09 February 2023
Orbit: 591 x 964 km, 66.7° (Epoch: 21 March)

Event Time Altitude Azimuth Distance (km) Brightness Sun altitude
Rises 22:37:31 0° 323° (NW) 3,451 10.0 -51.2°
Enters shadow 22:39:11 - 327° (NNW) 2,859 9.5 -51.3°
Reaches altitude 10° 22:40:03 10° 330° (NNW) 2,561 - -51.4°
Maximum altitude 22:45:50 47° 43° (NE) 1,223 - -51.8°
Drops below altitude 10° 22:51:56 10° 117° (ESE) 2,691 - -52.2°
Sets 22:54:38 0° 123° (ESE) 3,643 - -52.4°
